Regional Weather Roundup
Issued by NWS

Home | Current Version | Previous Version | Text Only | Print | Product List | Glossary Off
Versions: 1 2 3 4 5 6 7 8 9 10 11 12 13 14 15 16 17 18 19 20 21 22 23 24 25 26 27 28

000
ASUS45 KBOI 030110
RWRID

IDAHO REGIONAL WEATHER ROUNDUP
NATIONAL WEATHER SERVICE BOISE ID
600 PM MST FRI DEC 02 2016

NOTE: "FAIR" INDICATES FEW OR NO CLOUDS BELOW 12000 FEET
WITH NO SIGNIFICANT WEATHER AND/OR OBSTRUCTIONS TO VISIBILITY

IDZ012-014-030200-
SOUTHWEST IDAHO


CITY           SKY/WX    TMP DP  RH WIND       PRES   REMARKS
BOISE          CLOUDY    34  24  67 SE5       30.34R WCI  30
CALDWELL       CLOUDY    35  26  69 E6        30.35S WCI  30
MOUNTAIN HOME  CLOUDY    29  24  81 S5        30.34S WCI  24
$$

IDZ016-017-030200-
SOUTHCENTRAL IDAHO


CITY           SKY/WX    TMP DP  RH WIND       PRES   REMARKS
BURLEY         PTCLDY    27  22  81 W5        30.28S WCI  22
JEROME         MOCLDY    23  21  92 W6        30.30S WCI  16
TWIN FALLS     MOCLDY    23  19  85 SW6       30.30R WCI  16
$$

IDZ019>023-030200-
SOUTHEAST IDAHO


CITY           SKY/WX    TMP DP  RH WIND       PRES   REMARKS
IDAHO FALLS    CLOUDY    24  18  77 S8        30.28S WCI  15
POCATELLO      CLOUDY    26  22  84 S6        30.30R WCI  19
REXBURG        CLOUDY    23  19  85 SW10      30.27R WCI  12
$$

IDZ006-010-011-018-031-032-030200-
CENTRAL IDAHO MOUNTAINS


CITY           SKY/WX    TMP DP  RH WIND       PRES   REMARKS
MCCALL         CLOUDY    22  16  78 CALM      30.22S
HAILEY         PTCLDY    21  19  93 SE6       30.25R WCI  14
STANLEY          N/A     22  14  71 CALM      30.19R
SALMON         CLOUDY    30  18  59 E3        30.18F
CHALLIS        CLOUDY    27  19  72 CALM      30.18S
$$

IDZ002-004-006-007-026-030200-
NORTHERN IDAHO


CITY           SKY/WX    TMP DP  RH WIND       PRES   REMARKS
LEWISTON       CLOUDY    39  30  70 S18       30.20F WCI  30
LOWELL           N/A     37  34  89 CALM      30.26F
COEUR D`ALENE  LGT RAIN  34  32  92 S9        30.16R FOG     WCI  27
MULLAN PASS    CLOUDY    20  19  96 W5        30.05R FOG     WCI  13
$$




USA.gov is the U.S. government's official web portal to all federal, state and local government web resources and services.